| time (UTC) | temp F | wind direction | speed MPH | gust MPH | rain 1hr in | rain 24hr in | rain mn in | humidity % | barometer mb |
| 20260510082911 | 36 | 109 | 0.0 | 1.0 | 0.00 | 0.00 | 0.00 | 81 | 1014.2 |
| 20260510082409 | 37 | 109 | 0.0 | 1.0 | 0.00 | 0.00 | 0.00 | 81 | 1013.9 |
| 20260510081907 | 37 | 109 | 0.0 | 1.0 | 0.00 | 0.00 | 0.00 | 79 | 1014.1 |
| 20260510081404 | 37 | 109 | 0.0 | 0.0 | 0.00 | 0.00 | 0.00 | 74 | 1013.8 |
| 20260510080900 | 37 | 109 | 0.0 | 1.0 | 0.00 | 0.00 | 0.00 | 72 | 1013.6 |
| 20260510080354 | 37 | 109 | 0.0 | 0.0 | 0.00 | 0.00 | 0.00 | 73 | 1013.6 |
| 20260510075852 | 37 | 109 | 0.0 | 0.0 | 0.00 | 0.00 | 0.00 | 74 | 1013.6 |
| 20260510075350 | 37 | 109 | 0.0 | 0.0 | 0.00 | 0.00 | 0.00 | 73 | 1013.7 |
| 20260510074845 | 37 | 109 | 0.0 | 0.0 | 0.00 | 0.00 | 0.00 | 72 | 1013.5 |
| 20260510074343 | 37 | 109 | 0.0 | 0.0 | 0.00 | 0.00 | 0.00 | 71 | 1013.6 |
| 20260510073839 | 37 | 109 | 0.0 | 1.0 | 0.00 | 0.00 | 0.00 | 71 | 1013.6 |
| 20260510073335 | 37 | 109 | 0.0 | 0.0 | 0.00 | 0.00 | 0.00 | 71 | 1013.5 |
| 20260510072831 | 38 | 109 | 0.0 | 0.0 | 0.00 | 0.00 | 0.00 | 70 | 1013.6 |
| 20260510072328 | 38 | 109 | 0.0 | 1.0 | 0.00 | 0.00 | 0.00 | 70 | 1013.6 |
| 20260510071819 | 38 | 109 | 1.0 | 1.0 | 0.00 | 0.00 | 0.00 | 70 | 1013.5 |
| 20260510071315 | 38 | 109 | 1.0 | 1.0 | 0.00 | 0.00 | 0.00 | 70 | 1013.4 |
| 20260510070814 | 38 | 109 | 0.0 | 1.0 | 0.00 | 0.00 | 0.00 | 69 | 1013.6 |
| 20260510070310 | 37 | 108 | 0.0 | 0.0 | 0.00 | 0.00 | 0.00 | 70 | 1013.4 |
| 20260510065810 | 37 | 108 | 0.0 | 0.0 | 0.00 | 0.00 | 0.00 | 70 | 1013.5 |
| 20260510065307 | 37 | 108 | 0.0 | 0.0 | 0.00 | 0.00 | 0.00 | 69 | 1013.5 |
| 20260510064804 | 37 | 108 | 0.0 | 1.0 | 0.00 | 0.00 | 0.00 | 68 | 1013.4 |
| 20260510064302 | 37 | 108 | 0.0 | 0.0 | 0.00 | 0.00 | 0.00 | 68 | 1013.5 |
| 20260510063757 | 38 | 109 | 0.0 | 0.0 | 0.00 | 0.00 | 0.00 | 68 | 1013.5 |
| 20260510063254 | 38 | 108 | 0.0 | 0.0 | 0.00 | 0.00 | 0.00 | 67 | 1013.4 |
| 20260510062751 | 38 | 108 | 0.0 | 0.0 | 0.00 | 0.00 | 0.00 | 67 | 1013.6 |
| 20260510062247 | 39 | 109 | 0.0 | 1.0 | 0.00 | 0.00 | 0.00 | 69 | 1013.3 |
| 20260510061742 | 39 | 109 | 0.0 | 0.0 | 0.00 | 0.00 | 0.00 | 66 | 1013.4 |
| 20260510061240 | 39 | 109 | 0.0 | 1.0 | 0.00 | 0.00 | 0.00 | 65 | 1013.4 |
| 20260510060735 | 39 | 109 | 0.0 | 0.0 | 0.00 | 0.00 | 0.00 | 66 | 1013.3 |
| 20260510060233 | 39 | 109 | 0.0 | 1.0 | 0.00 | 0.00 | 0.00 | 65 | 1013.5 |
| 20260510055729 | 39 | 109 | 0.0 | 1.0 | 0.00 | 0.00 | 0.00 | 64 | 1013.6 |
| 20260510055227 | 39 | 109 | 0.0 | 0.0 | 0.00 | 0.00 | 0.00 | 64 | 1013.1 |
| 20260510054722 | 40 | 109 | 0.0 | 0.0 | 0.00 | 0.00 | 0.00 | 64 | 1013.2 |
| 20260510054218 | 39 | 109 | 0.0 | 1.0 | 0.00 | 0.00 | 0.00 | 63 | 1013.2 |
| 20260510053717 | 40 | 109 | 0.0 | 1.0 | 0.00 | 0.00 | 0.00 | 63 | 1013.1 |
| 20260510053214 | 40 | 109 | 0.0 | 1.0 | 0.00 | 0.00 | 0.00 | 63 | 1013.2 |
| 20260510052710 | 40 | 108 | 0.0 | 1.0 | 0.00 | 0.00 | 0.00 | 64 | 1013.1 |
| 20260510052206 | 40 | 108 | 0.0 | 0.0 | 0.00 | 0.00 | 0.00 | 64 | 1013.2 |
| 20260510051702 | 40 | 108 | 0.0 | 0.0 | 0.00 | 0.00 | 0.00 | 62 | 1013.0 |
| 20260510051158 | 40 | 108 | 0.0 | 1.0 | 0.00 | 0.00 | 0.00 | 61 | 1012.9 |
| 20260510050656 | 40 | 108 | 0.0 | 0.0 | 0.00 | 0.00 | 0.00 | 61 | 1012.7 |
| 20260510050153 | 41 | 108 | 1.0 | 1.0 | 0.00 | 0.00 | 0.00 | 61 | 1013.1 |
| 20260510045649 | 41 | 106 | 0.0 | 1.0 | 0.00 | 0.22 | 0.22 | 60 | 1013.0 |
| 20260510045146 | 41 | 106 | 0.0 | 1.0 | 0.00 | 0.22 | 0.22 | 59 | 1012.7 |
| 20260510044642 | 41 | 105 | 0.0 | 1.0 | 0.00 | 0.22 | 0.22 | 58 | 1012.7 |
| 20260510044140 | 41 | 105 | 0.0 | 1.0 | 0.00 | 0.22 | 0.22 | 58 | 1012.7 |
| 20260510043635 | 42 | 105 | 0.0 | 0.0 | 0.00 | 0.22 | 0.22 | 58 | 1012.9 |
| 20260510043132 | 42 | 105 | 0.0 | 0.0 | 0.00 | 0.22 | 0.22 | 58 | 1012.9 |
| 20260510042630 | 42 | 105 | 0.0 | 0.0 | 0.00 | 0.22 | 0.22 | 57 | 1012.7 |
| 20260510042125 | 42 | 105 | 0.0 | 0.0 | 0.00 | 0.22 | 0.22 | 58 | 1013.0 |
| 20260510041623 | 42 | 105 | 0.0 | 0.0 | 0.00 | 0.22 | 0.22 | 61 | 1012.7 |
| 20260510041120 | 42 | 105 | 0.0 | 0.0 | 0.00 | 0.22 | 0.22 | 58 | 1012.7 |
| 20260510040617 | 42 | 105 | 0.0 | 0.0 | 0.00 | 0.22 | 0.22 | 57 | 1012.5 |
| 20260510040113 | 42 | 105 | 0.0 | 0.0 | 0.00 | 0.22 | 0.22 | 57 | 1012.6 |
| 20260510035609 | 42 | 105 | 0.0 | 0.0 | 0.00 | 0.22 | 0.22 | 57 | 1012.5 |
| 20260510035104 | 42 | 105 | 0.0 | 0.0 | 0.00 | 0.22 | 0.22 | 56 | 1012.4 |
| 20260510034602 | 42 | 105 | 0.0 | 0.0 | 0.00 | 0.22 | 0.22 | 56 | 1012.3 |
| 20260510034059 | 42 | 105 | 0.0 | 0.0 | 0.00 | 0.22 | 0.22 | 57 | 1012.4 |
| 20260510033555 | 43 | 105 | 0.0 | 0.0 | 0.00 | 0.22 | 0.22 | 56 | 1012.3 |
| 20260510033053 | 43 | 105 | 0.0 | 0.0 | 0.00 | 0.22 | 0.22 | 55 | 1012.6 |
| 20260510032549 | 44 | 105 | 0.0 | 0.0 | 0.00 | 0.22 | 0.22 | 54 | 1012.6 |
| 20260510032044 | 44 | 105 | 0.0 | 0.0 | 0.00 | 0.22 | 0.22 | 53 | 1012.4 |
| 20260510031539 | 45 | 105 | 0.0 | 0.0 | 0.00 | 0.22 | 0.22 | 53 | 1012.2 |
| 20260510031035 | 45 | 105 | 0.0 | 1.0 | 0.00 | 0.22 | 0.22 | 53 | 1012.3 |
| 20260510030531 | 46 | 105 | 0.0 | 1.0 | 0.00 | 0.22 | 0.22 | 52 | 1012.1 |
| 20260510030029 | 46 | 104 | 1.0 | 2.0 | 0.00 | 0.22 | 0.22 | 52 | 1012.0 |
| 20260510025526 | 47 | 110 | 0.0 | 2.0 | 0.00 | 0.22 | 0.22 | 50 | 1012.1 |
| 20260510025023 | 47 | 100 | 1.0 | 1.0 | 0.00 | 0.22 | 0.22 | 51 | 1011.8 |
| 20260510024520 | 47 | 107 | 0.0 | 2.0 | 0.00 | 0.22 | 0.22 | 50 | 1011.6 |
| 20260510024016 | 48 | 94 | 1.0 | 2.0 | 0.00 | 0.22 | 0.22 | 50 | 1011.7 |
| 20260510023512 | 48 | 79 | 2.0 | 2.0 | 0.00 | 0.22 | 0.22 | 48 | 1011.4 |
| 20260510023010 | 48 | 104 | 0.0 | 3.0 | 0.00 | 0.22 | 0.22 | 48 | 1011.6 |
| 20260510022509 | 48 | 113 | 1.0 | 2.0 | 0.00 | 0.22 | 0.22 | 49 | 1011.2 |
| 20260510022008 | 49 | 98 | 0.0 | 2.0 | 0.00 | 0.22 | 0.22 | 47 | 1011.1 |
| 20260510021505 | 49 | 96 | 1.0 | 2.0 | 0.00 | 0.22 | 0.22 | 48 | 1011.2 |
| 20260510021003 | 49 | 71 | 1.0 | 2.0 | 0.00 | 0.22 | 0.22 | 49 | 1010.9 |
| 20260510020457 | 50 | 108 | 2.0 | 2.0 | 0.00 | 0.22 | 0.22 | 46 | 1010.8 |
| 20260510015953 | 50 | 57 | 1.0 | 3.0 | 0.00 | 0.22 | 0.22 | 42 | 1010.8 |
| 20260510015448 | 50 | 100 | 1.0 | 2.0 | 0.00 | 0.22 | 0.22 | 44 | 1010.7 |
| 20260510014943 | 51 | 65 | 3.0 | 5.0 | 0.00 | 0.22 | 0.22 | 42 | 1010.5 |
| 20260510014442 | 51 | 116 | 0.0 | 6.0 | 0.00 | 0.22 | 0.22 | 42 | 1010.3 |
| 20260510013938 | 52 | 98 | 2.0 | 2.0 | 0.00 | 0.22 | 0.22 | 42 | 1010.4 |
| 20260510013432 | 52 | 82 | 3.0 | 3.0 | 0.00 | 0.22 | 0.22 | 40 | 1010.3 |
| 20260510012928 | 52 | 76 | 1.0 | 2.0 | 0.00 | 0.22 | 0.22 | 42 | 1010.0 |
| 20260510012423 | 52 | 87 | 1.0 | 2.0 | 0.00 | 0.22 | 0.22 | 43 | 1010.2 |
| 20260510011918 | 53 | 101 | 0.0 | 1.0 | 0.00 | 0.22 | 0.22 | 43 | 1010.1 |
| 20260510011414 | 53 | 113 | 0.0 | 2.0 | 0.00 | 0.22 | 0.22 | 39 | 1009.9 |
| 20260510010910 | 53 | 98 | 2.0 | 3.0 | 0.00 | 0.22 | 0.22 | 39 | 1009.8 |
| 20260510010408 | 54 | 96 | 1.0 | 3.0 | 0.00 | 0.22 | 0.22 | 37 | 1009.6 |
| 20260510005904 | 54 | 93 | 1.0 | 3.0 | 0.00 | 0.22 | 0.22 | 40 | 1009.7 |
| 20260510005400 | 54 | 55 | 3.0 | 3.0 | 0.00 | 0.22 | 0.22 | 36 | 1009.4 |
| 20260510004858 | 54 | 44 | 2.0 | 3.0 | 0.00 | 0.22 | 0.22 | 36 | 1009.6 |
| 20260510004355 | 54 | 11 | 1.0 | 3.0 | 0.00 | 0.22 | 0.22 | 37 | 1009.4 |
| 20260510003853 | 54 | 97 | 1.0 | 5.0 | 0.00 | 0.22 | 0.22 | 37 | 1009.4 |
| 20260510003350 | 54 | 18 | 2.0 | 3.0 | 0.00 | 0.22 | 0.22 | 37 | 1009.2 |
| 20260510002848 | 55 | 82 | 1.0 | 5.0 | 0.00 | 0.22 | 0.22 | 37 | 1009.3 |
| 20260510002346 | 55 | 113 | 1.0 | 9.0 | 0.00 | 0.22 | 0.22 | 35 | 1009.3 |
| 20260510001842 | 55 | 114 | 0.0 | 2.0 | 0.00 | 0.22 | 0.22 | 36 | 1009.2 |
| 20260510001340 | 55 | 35 | 3.0 | 6.0 | 0.00 | 0.22 | 0.22 | 35 | 1009.0 |
| 20260510000836 | 55 | 30 | 2.0 | 7.0 | 0.00 | 0.22 | 0.22 | 35 | 1009.2 |
| 20260510000334 | 55 | 343 | 3.0 | 9.0 | 0.00 | 0.22 | 0.22 | 34 | 1009.2 |
| 20260509235830 | 56 | 76 | 2.0 | 6.0 | 0.00 | 0.22 | 0.22 | 33 | 1009.0 |
| 20260509235327 | 56 | 111 | 1.0 | 9.0 | 0.00 | 0.22 | 0.22 | 32 | 1009.0 |
| 20260509234823 | 56 | 107 | 1.0 | 6.0 | 0.00 | 0.22 | 0.22 | 33 | 1008.9 |
| 20260509234320 | 57 | 290 | 1.0 | 6.0 | 0.00 | 0.22 | 0.22 | 34 | 1009.0 |
| 20260509233818 | 57 | 338 | 7.0 | 9.0 | 0.00 | 0.22 | 0.22 | 32 | 1008.6 |
| 20260509233316 | 57 | 144 | 1.0 | 3.0 | 0.00 | 0.22 | 0.22 | 33 | 1008.6 |
| 20260509232811 | 57 | 56 | 5.0 | 6.0 | 0.00 | 0.22 | 0.22 | 33 | 1008.5 |
| 20260509232309 | 58 | 60 | 3.0 | 10.0 | 0.00 | 0.22 | 0.22 | 33 | 1008.4 |
| 20260509231805 | 58 | 39 | 3.0 | 5.0 | 0.00 | 0.22 | 0.22 | 34 | 1008.4 |
| 20260509231302 | 58 | 83 | 1.0 | 5.0 | 0.00 | 0.22 | 0.22 | 31 | 1008.2 |
| 20260509230800 | 58 | 359 | 5.0 | 9.0 | 0.00 | 0.22 | 0.22 | 31 | 1008.6 |
| 20260509230256 | 59 | 145 | 3.0 | 7.0 | 0.00 | 0.22 | 0.22 | 31 | 1008.5 |
| 20260509225751 | 58 | 186 | 2.0 | 7.0 | 0.00 | 0.22 | 0.22 | 31 | 1008.4 |
| 20260509225248 | 59 | 135 | 1.0 | 11.0 | 0.00 | 0.22 | 0.22 | 31 | 1008.3 |
| 20260509224744 | 59 | 67 | 4.0 | 5.0 | 0.00 | 0.22 | 0.22 | 31 | 1008.1 |
| 20260509224241 | 59 | 76 | 2.0 | 5.0 | 0.00 | 0.22 | 0.22 | 31 | 1008.2 |
| 20260509223738 | 59 | 25 | 2.0 | 6.0 | 0.00 | 0.22 | 0.22 | 31 | 1008.5 |
| 20260509223235 | 59 | 258 | 3.0 | 7.0 | 0.00 | 0.22 | 0.22 | 31 | 1008.3 |
| 20260509222732 | 59 | 82 | 4.0 | 8.0 | 0.00 | 0.22 | 0.22 | 30 | 1007.9 |
| 20260509222227 | 59 | 331 | 2.0 | 8.0 | 0.00 | 0.22 | 0.22 | 32 | 1008.0 |
| 20260509221723 | 58 | 346 | 4.0 | 8.0 | 0.00 | 0.22 | 0.22 | 31 | 1008.2 |
| 20260509221219 | 59 | 107 | 2.0 | 8.0 | 0.00 | 0.22 | 0.22 | 33 | 1007.8 |
| 20260509220715 | 59 | 4 | 2.0 | 8.0 | 0.00 | 0.22 | 0.22 | 32 | 1008.0 |
| 20260509220212 | 58 | 63 | 3.0 | 6.0 | 0.00 | 0.22 | 0.22 | 33 | 1007.8 |
| 20260509215707 | 59 | 37 | 5.0 | 9.0 | 0.00 | 0.22 | 0.22 | 32 | 1007.9 |
| 20260509215204 | 59 | 336 | 3.0 | 8.0 | 0.00 | 0.22 | 0.22 | 31 | 1007.9 |
| 20260509214701 | 59 | 336 | 5.0 | 7.0 | 0.00 | 0.22 | 0.22 | 32 | 1007.8 |
| 20260509214158 | 59 | 81 | 1.0 | 9.0 | 0.00 | 0.22 | 0.22 | 32 | 1007.9 |
| 20260509213655 | 59 | 352 | 7.0 | 9.0 | 0.00 | 0.22 | 0.22 | 32 | 1007.7 |
| 20260509213151 | 60 | 40 | 2.0 | 9.0 | 0.00 | 0.22 | 0.22 | 32 | 1007.5 |
| 20260509212648 | 59 | 31 | 2.0 | 7.0 | 0.00 | 0.22 | 0.22 | 33 | 1007.5 |
| 20260509212145 | 59 | 30 | 3.0 | 6.0 | 0.00 | 0.22 | 0.22 | 32 | 1007.3 |
| 20260509211641 | 59 | 80 | 4.0 | 8.0 | 0.00 | 0.22 | 0.22 | 33 | 1007.6 |
| 20260509211138 | 59 | 7 | 4.0 | 8.0 | 0.00 | 0.22 | 0.22 | 32 | 1007.5 |
| 20260509210635 | 59 | 257 | 5.0 | 14.0 | 0.00 | 0.22 | 0.22 | 33 | 1007.6 |
| 20260509210132 | 59 | 30 | 5.0 | 10.0 | 0.00 | 0.22 | 0.22 | 33 | 1007.6 |
| 20260509205627 | 59 | 2 | 3.0 | 9.0 | 0.00 | 0.22 | 0.22 | 35 | 1007.3 |
| 20260509205121 | 60 | 306 | 2.0 | 7.0 | 0.00 | 0.22 | 0.22 | 37 | 1007.2 |
| 20260509204618 | 59 | 95 | 2.0 | 7.0 | 0.00 | 0.22 | 0.22 | 37 | 1007.6 |
| 20260509204114 | 60 | 24 | 8.0 | 13.0 | 0.00 | 0.22 | 0.22 | 32 | 1007.4 |
| 20260509203610 | 59 | 147 | 3.0 | 5.0 | 0.00 | 0.22 | 0.22 | 34 | 1007.5 |
| 20260509203109 | 60 | 63 | 2.0 | 20.0 | 0.00 | 0.22 | 0.22 | 37 | 1007.4 |
| 20260509202603 | 60 | 89 | 3.0 | 8.0 | 0.00 | 0.22 | 0.22 | 34 | 1007.5 |
| 20260509202058 | 59 | 98 | 5.0 | 13.0 | 0.00 | 0.22 | 0.22 | 39 | 1007.3 |
| 20260509201553 | 60 | 17 | 3.0 | 7.0 | 0.00 | 0.22 | 0.22 | 33 | 1007.4 |
| 20260509201051 | 59 | 105 | 3.0 | 5.0 | 0.00 | 0.22 | 0.22 | 36 | 1007.2 |
| 20260509200550 | 60 | 320 | 3.0 | 3.0 | 0.00 | 0.22 | 0.22 | 35 | 1007.1 |
| 20260509200047 | 59 | 186 | 1.0 | 6.0 | 0.00 | 0.22 | 0.22 | 35 | 1007.1 |
| 20260509195543 | 59 | 358 | 3.0 | 8.0 | 0.00 | 0.22 | 0.22 | 35 | 1006.9 |
| 20260509195038 | 59 | 3 | 4.0 | 6.0 | 0.00 | 0.22 | 0.22 | 34 | 1007.2 |
| 20260509194533 | 60 | 165 | 3.0 | 8.0 | 0.00 | 0.22 | 0.22 | 35 | 1007.2 |
| 20260509194031 | 59 | 112 | 3.0 | 15.0 | 0.00 | 0.22 | 0.22 | 37 | 1007.0 |
| 20260509193531 | 59 | 155 | 1.0 | 8.0 | 0.00 | 0.22 | 0.22 | 37 | 1006.9 |
| 20260509193028 | 59 | 17 | 3.0 | 7.0 | 0.00 | 0.22 | 0.22 | 37 | 1006.9 |
| 20260509192524 | 59 | 132 | 2.0 | 8.0 | 0.00 | 0.22 | 0.22 | 37 | 1006.9 |
| 20260509192019 | 59 | 47 | 6.0 | 8.0 | 0.00 | 0.22 | 0.22 | 36 | 1006.7 |
| 20260509191514 | 59 | 127 | 2.0 | 7.0 | 0.00 | 0.22 | 0.22 | 37 | 1006.8 |
| 20260509191010 | 58 | 105 | 0.0 | 7.0 | 0.00 | 0.22 | 0.22 | 37 | 1006.8 |
| 20260509190507 | 58 | 82 | 3.0 | 8.0 | 0.00 | 0.22 | 0.22 | 39 | 1006.6 |
| 20260509190006 | 58 | 95 | 5.0 | 15.0 | 0.00 | 0.22 | 0.22 | 37 | 1006.6 |
| 20260509185502 | 59 | 277 | 4.0 | 8.0 | 0.00 | 0.22 | 0.22 | 36 | 1006.6 |
| 20260509184958 | 59 | 72 | 4.0 | 5.0 | 0.00 | 0.22 | 0.22 | 38 | 1006.6 |
| 20260509184457 | 58 | 69 | 3.0 | 7.0 | 0.00 | 0.22 | 0.22 | 40 | 1006.6 |
| 20260509183952 | 59 | 70 | 5.0 | 9.0 | 0.00 | 0.22 | 0.22 | 38 | 1006.2 |
| 20260509183447 | 58 | 289 | 4.0 | 8.0 | 0.00 | 0.22 | 0.22 | 37 | 1006.1 |
| 20260509182944 | 59 | 67 | 4.0 | 8.0 | 0.00 | 0.22 | 0.22 | 38 | 1006.4 |
| 20260509182440 | 58 | 97 | 1.0 | 7.0 | 0.00 | 0.22 | 0.22 | 38 | 1006.3 |
| 20260509181937 | 57 | 255 | 6.0 | 7.0 | 0.00 | 0.22 | 0.22 | 36 | 1006.1 |
| 20260509181436 | 58 | 30 | 1.0 | 6.0 | 0.00 | 0.22 | 0.22 | 38 | 1006.4 |
| 20260509180933 | 58 | 357 | 5.0 | 6.0 | 0.00 | 0.22 | 0.22 | 38 | 1006.5 |
| 20260509180428 | 57 | 211 | 4.0 | 9.0 | 0.00 | 0.22 | 0.22 | 36 | 1006.2 |
| 20260509175925 | 57 | 32 | 1.0 | 10.0 | 0.00 | 0.22 | 0.22 | 39 | 1006.0 |
| 20260509175421 | 57 | 333 | 5.0 | 7.0 | 0.00 | 0.22 | 0.22 | 40 | 1006.2 |
| 20260509174918 | 58 | 150 | 4.0 | 7.0 | 0.00 | 0.22 | 0.22 | 36 | 1006.0 |
| 20260509174414 | 58 | 56 | 5.0 | 8.0 | 0.00 | 0.22 | 0.22 | 37 | 1006.0 |
| 20260509173910 | 58 | 125 | 1.0 | 5.0 | 0.00 | 0.22 | 0.22 | 39 | 1005.9 |
| 20260509173409 | 57 | 170 | 2.0 | 9.0 | 0.00 | 0.22 | 0.22 | 41 | 1006.1 |
| 20260509172906 | 58 | 289 | 4.0 | 8.0 | 0.00 | 0.22 | 0.22 | 39 | 1005.8 |
| 20260509172403 | 57 | 46 | 2.0 | 9.0 | 0.00 | 0.22 | 0.22 | 40 | 1006.1 |
| 20260509171859 | 57 | 71 | 3.0 | 6.0 | 0.00 | 0.22 | 0.22 | 39 | 1006.0 |
| 20260509171355 | 57 | 211 | 2.0 | 7.0 | 0.00 | 0.22 | 0.22 | 40 | 1005.8 |
| 20260509170851 | 56 | 81 | 2.0 | 10.0 | 0.00 | 0.22 | 0.22 | 39 | 1006.0 |
| 20260509170347 | 56 | 108 | 2.0 | 5.0 | 0.00 | 0.22 | 0.22 | 38 | 1005.8 |
| 20260509165842 | 57 | 136 | 5.0 | 7.0 | 0.00 | 0.22 | 0.22 | 36 | 1005.8 |
| 20260509165337 | 56 | 85 | 2.0 | 11.0 | 0.00 | 0.22 | 0.22 | 40 | 1005.7 |
| 20260509164833 | 57 | 352 | 2.0 | 7.0 | 0.00 | 0.22 | 0.22 | 43 | 1005.7 |
| 20260509164329 | 56 | 144 | 2.0 | 8.0 | 0.00 | 0.22 | 0.22 | 42 | 1005.5 |
| 20260509163826 | 56 | 92 | 1.0 | 6.0 | 0.00 | 0.22 | 0.22 | 43 | 1005.3 |
| 20260509163322 | 56 | 65 | 3.0 | 5.0 | 0.00 | 0.22 | 0.22 | 39 | 1005.3 |
| 20260509162821 | 56 | 40 | 5.0 | 7.0 | 0.00 | 0.22 | 0.22 | 41 | 1005.4 |
| 20260509162314 | 55 | 59 | 3.0 | 8.0 | 0.00 | 0.22 | 0.22 | 43 | 1005.4 |
| 20260509161811 | 55 | 307 | 2.0 | 9.0 | 0.00 | 0.22 | 0.22 | 46 | 1005.3 |
| 20260509161307 | 55 | 5 | 2.0 | 7.0 | 0.00 | 0.22 | 0.22 | 47 | 1005.2 |
| 20260509160803 | 55 | 28 | 4.0 | 6.0 | 0.00 | 0.22 | 0.22 | 43 | 1005.3 |
| 20260509160259 | 55 | 57 | 3.0 | 5.0 | 0.00 | 0.22 | 0.22 | 44 | 1005.2 |
| 20260509155754 | 54 | 210 | 2.0 | 7.0 | 0.00 | 0.22 | 0.22 | 42 | 1005.0 |
| 20260509155251 | 55 | 41 | 3.0 | 9.0 | 0.00 | 0.22 | 0.22 | 45 | 1005.0 |
| 20260509154747 | 54 | 330 | 2.0 | 6.0 | 0.00 | 0.22 | 0.22 | 51 | 1004.8 |
| 20260509154245 | 54 | 88 | 1.0 | 5.0 | 0.00 | 0.22 | 0.22 | 47 | 1004.8 |
| 20260509153741 | 53 | 282 | 2.0 | 9.0 | 0.00 | 0.22 | 0.22 | 52 | 1004.8 |
| 20260509153237 | 55 | 71 | 2.0 | 3.0 | 0.00 | 0.22 | 0.22 | 47 | 1004.5 |
| 20260509152734 | 54 | 32 | 5.0 | 8.0 | 0.00 | 0.22 | 0.22 | 52 | 1004.5 |
| 20260509152231 | 54 | 86 | 5.0 | 7.0 | 0.00 | 0.22 | 0.22 | 54 | 1004.7 |
| 20260509151728 | 53 | 31 | 3.0 | 10.0 | 0.00 | 0.22 | 0.22 | 51 | 1004.4 |
| 20260509151224 | 54 | 127 | 2.0 | 6.0 | 0.00 | 0.22 | 0.22 | 57 | 1004.4 |
| 20260509150722 | 53 | 34 | 3.0 | 5.0 | 0.00 | 0.22 | 0.22 | 58 | 1004.4 |
| 20260509150220 | 53 | 88 | 3.0 | 7.0 | 0.00 | 0.22 | 0.22 | 59 | 1004.3 |
| 20260509145717 | 53 | 30 | 3.0 | 5.0 | 0.00 | 0.22 | 0.22 | 62 | 1004.3 |
| 20260509145212 | 52 | 3 | 2.0 | 5.0 | 0.00 | 0.22 | 0.22 | 66 | 1004.0 |
| 20260509144708 | 52 | 31 | 3.0 | 5.0 | 0.00 | 0.22 | 0.22 | 66 | 1004.0 |
| 20260509144205 | 51 | 43 | 3.0 | 9.0 | 0.00 | 0.22 | 0.22 | 64 | 1004.0 |
| 20260509143703 | 51 | 120 | 1.0 | 5.0 | 0.00 | 0.22 | 0.22 | 72 | 1003.8 |
| 20260509143200 | 51 | 80 | 3.0 | 3.0 | 0.00 | 0.22 | 0.22 | 70 | 1003.6 |
| 20260509142655 | 51 | 103 | 1.0 | 3.0 | 0.00 | 0.22 | 0.22 | 75 | 1003.7 |
| 20260509142152 | 51 | 24 | 1.0 | 3.0 | 0.00 | 0.22 | 0.22 | 79 | 1003.7 |
| 20260509141648 | 50 | 75 | 2.0 | 5.0 | 0.00 | 0.22 | 0.22 | 77 | 1003.9 |
| 20260509141144 | 48 | 102 | 2.0 | 5.0 | 0.00 | 0.22 | 0.22 | 83 | 1003.7 |
| 20260509140641 | 48 | 69 | 3.0 | 3.0 | 0.00 | 0.22 | 0.22 | 91 | 1003.5 |
| 20260509140139 | 47 | 56 | 1.0 | 7.0 | 0.00 | 0.22 | 0.22 | 93 | 1003.4 |
| 20260509135636 | 46 | 89 | 2.0 | 6.0 | 0.00 | 0.22 | 0.22 | 95 | 1003.2 |
| 20260509135135 | 46 | 357 | 3.0 | 7.0 | 0.00 | 0.22 | 0.22 | 96 | 1003.3 |
| 20260509134631 | 47 | 113 | 2.0 | 3.0 | 0.00 | 0.22 | 0.22 | 98 | 1003.2 |
| 20260509134128 | 46 | 121 | 1.0 | 3.0 | 0.00 | 0.22 | 0.22 | 98 | 1003.4 |
| 20260509133625 | 46 | 326 | 3.0 | 6.0 | 0.00 | 0.22 | 0.22 | 99 | 1003.4 |
| 20260509133123 | 46 | 168 | 2.0 | 5.0 | 0.00 | 0.22 | 0.22 | 99 | 1003.0 |
| 20260509132621 | 46 | 71 | 2.0 | 5.0 | 0.00 | 0.22 | 0.22 | 99 | 1003.2 |
| 20260509132119 | 46 | 71 | 0.0 | 2.0 | 0.00 | 0.22 | 0.22 | 99 | 1003.2 |
| 20260509131614 | 46 | 165 | 1.0 | 2.0 | 0.00 | 0.22 | 0.22 | 99 | 1003.2 |
| 20260509131112 | 46 | 72 | 1.0 | 2.0 | 0.00 | 0.22 | 0.22 | 99 | 1003.2 |
| 20260509130607 | 46 | 81 | 1.0 | 2.0 | 0.00 | 0.22 | 0.22 | 99 | 1003.1 |
| 20260509130104 | 45 | 118 | 1.0 | 2.0 | 0.00 | 0.22 | 0.22 | 99 | 1002.9 |
| 20260509125601 | 46 | 193 | 1.0 | 1.0 | 0.00 | 0.22 | 0.22 | 99 | 1002.9 |
| 20260509125057 | 45 | 95 | 1.0 | 2.0 | 0.00 | 0.22 | 0.22 | 99 | 1002.9 |
| 20260509124554 | 45 | 148 | 0.0 | 2.0 | 0.00 | 0.22 | 0.22 | 99 | 1002.9 |
| 20260509124051 | 45 | 90 | 0.0 | 2.0 | 0.00 | 0.22 | 0.22 | 99 | 1002.7 |
| 20260509123549 | 45 | 87 | 1.0 | 2.0 | 0.00 | 0.22 | 0.22 | 99 | 1002.5 |
| 20260509123045 | 45 | 134 | 1.0 | 2.0 | 0.00 | 0.22 | 0.22 | 99 | 1002.4 |
| 20260509122541 | 45 | 92 | 0.0 | 1.0 | 0.00 | 0.22 | 0.22 | 99 | 1002.4 |
| 20260509122039 | 45 | 145 | 1.0 | 1.0 | 0.00 | 0.22 | 0.22 | 99 | 1002.3 |
| 20260509121535 | 45 | 127 | 1.0 | 1.0 | 0.00 | 0.22 | 0.22 | 99 | 1002.4 |
| 20260509121033 | 44 | 87 | 1.0 | 2.0 | 0.00 | 0.22 | 0.22 | 99 | 1002.3 |
| 20260509120531 | 44 | 133 | 0.0 | 1.0 | 0.00 | 0.22 | 0.22 | 99 | 1002.1 |
| 20260509120029 | 44 | 133 | 0.0 | 1.0 | 0.00 | 0.22 | 0.22 | 99 | 1002.1 |
| 20260509115525 | 44 | 133 | 0.0 | 1.0 | 0.00 | 0.22 | 0.22 | 99 | 1002.2 |
| 20260509115023 | 43 | 133 | 0.0 | 0.0 | 0.00 | 0.22 | 0.22 | 99 | 1002.2 |
| 20260509114521 | 43 | 133 | 0.0 | 0.0 | 0.00 | 0.22 | 0.22 | 99 | 1001.9 |
| 20260509114020 | 43 | 134 | 0.0 | 0.0 | 0.00 | 0.22 | 0.22 | 99 | 1002.1 |
| 20260509113518 | 43 | 134 | 0.0 | 1.0 | 0.00 | 0.22 | 0.22 | 99 | 1001.7 |
| 20260509113016 | 44 | 134 | 0.0 | 0.0 | 0.00 | 0.22 | 0.22 | 99 | 1001.5 |
| 20260509112511 | 44 | 134 | 0.0 | 0.0 | 0.00 | 0.22 | 0.22 | 99 | 1001.5 |
| 20260509112008 | 44 | 134 | 0.0 | 0.0 | 0.00 | 0.22 | 0.22 | 99 | 1001.3 |
| 20260509111506 | 44 | 135 | 0.0 | 0.0 | 0.00 | 0.22 | 0.22 | 99 | 1001.5 |
| 20260509111003 | 44 | 135 | 0.0 | 1.0 | 0.07 | 0.22 | 0.22 | 99 | 1001.3 |
| 20260509110459 | 44 | 135 | 0.0 | 0.0 | 0.07 | 0.22 | 0.22 | 99 | 1001.3 |
| 20260509105956 | 44 | 135 | 0.0 | 1.0 | 0.00 | 0.21 | 0.21 | 99 | 1001.1 |
| 20260509105455 | 44 | 130 | 0.0 | 0.0 | 0.00 | 0.21 | 0.21 | 99 | 1001.1 |
| 20260509104952 | 44 | 130 | 0.0 | 0.0 | 0.00 | 0.21 | 0.21 | 99 | 1000.9 |
| 20260509104449 | 44 | 113 | 0.0 | 0.0 | 0.00 | 0.21 | 0.21 | 99 | 1000.7 |
| 20260509103946 | 44 | 113 | 0.0 | 1.0 | 0.00 | 0.21 | 0.21 | 99 | 1000.4 |
| 20260509103443 | 44 | 130 | 0.0 | 1.0 | 0.00 | 0.21 | 0.21 | 99 | 1000.8 |
| 20260509102941 | 44 | 126 | 0.0 | 0.0 | 0.00 | 0.21 | 0.21 | 99 | 1000.7 |
| 20260509102439 | 44 | 132 | 0.0 | 0.0 | 0.00 | 0.21 | 0.21 | 99 | 1000.6 |
| 20260509101934 | 44 | 132 | 0.0 | 0.0 | 0.00 | 0.21 | 0.21 | 99 | 1000.3 |
| 20260509101431 | 44 | 132 | 0.0 | 0.0 | 0.00 | 0.21 | 0.21 | 99 | 1000.3 |
| 20260509100929 | 44 | 132 | 0.0 | 0.0 | 0.00 | 0.21 | 0.21 | 99 | 1000.2 |
| 20260509100426 | 44 | 149 | 0.0 | 0.0 | 0.05 | 0.21 | 0.21 | 99 | 1000.3 |
| 20260509095922 | 44 | 139 | 0.0 | 0.0 | 0.17 | 0.21 | 0.21 | 99 | 1000.6 |
| 20260509095419 | 44 | 139 | 0.0 | 1.0 | 0.12 | 0.19 | 0.19 | 99 | 1000.4 |
| 20260509094916 | 45 | 139 | 0.0 | 1.0 | 0.14 | 0.18 | 0.18 | 99 | 1000.4 |
| 20260509094413 | 45 | 130 | 0.0 | 1.0 | 0.12 | 0.17 | 0.17 | 98 | 1000.3 |
| 20260509093911 | 45 | 93 | 0.0 | 2.0 | 0.17 | 0.16 | 0.16 | 98 | 1000.6 |
| 20260509093408 | 45 | 87 | 0.0 | 1.0 | 0.12 | 0.15 | 0.15 | 98 | 1000.9 |
| 20260509092906 | 45 | 86 | 0.0 | 2.0 | 0.07 | 0.13 | 0.13 | 98 | 1000.9 |
| 20260509092403 | 45 | 87 | 0.0 | 1.0 | 0.19 | 0.13 | 0.13 | 97 | 1000.8 |
| 20260509091902 | 45 | 82 | 1.0 | 3.0 | 0.17 | 0.12 | 0.12 | 97 | 1000.5 |
| 20260509091358 | 45 | 87 | 0.0 | 2.0 | 0.17 | 0.10 | 0.10 | 97 | 1000.7 |
| 20260509090855 | 45 | 40 | 3.0 | 3.0 | 0.24 | 0.09 | 0.09 | 96 | 1000.7 |
| 20260509090353 | 46 | 58 | 2.0 | 3.0 | 0.26 | 0.07 | 0.07 | 95 | 1000.7 |
| 20260509085850 | 46 | 81 | 1.0 | 5.0 | 0.19 | 0.05 | 0.05 | 94 | 1000.6 |
| 20260509085347 | 46 | 44 | 1.0 | 2.0 | 0.05 | 0.03 | 0.03 | 93 | 1001.1 |
| 20260509084843 | 47 | 76 | 0.0 | 3.0 | 0.07 | 0.02 | 0.02 | 91 | 1000.8 |
| 20260509084340 | 47 | 88 | 1.0 | 3.0 | 0.12 | 0.02 | 0.02 | 88 | 1000.7 |
| 20260509083838 | 48 | 77 | 2.0 | 2.0 | 0.05 | 0.01 | 0.01 | 85 | 1000.7 |
| 20260509083335 | 49 | 85 | 2.0 | 2.0 | 0.00 | 0.00 | 0.00 | 82 | 1000.6 |